| time (UTC) | temp C | wind direction | speed KPH | gust KPH | rain 1hr cm | rain 24hr cm | rain mn cm | humidity % | barometer mb |
| 20260508013530 | 20 | 39 | 3.2 | 4.8 | 0.00 | 0.00 | 0.00 | 65 | 1013.0 |
| 20260508013027 | 21 | 19 | 3.2 | 4.8 | 0.00 | 0.00 | 0.00 | 64 | 1013.1 |
| 20260508012524 | 21 | 44 | 1.6 | 11.3 | 0.00 | 0.00 | 0.00 | 63 | 1013.0 |
| 20260508012022 | 21 | 202 | 6.4 | 11.3 | 0.00 | 0.00 | 0.00 | 62 | 1013.1 |
| 20260508011520 | 22 | 339 | 1.6 | 9.7 | 0.00 | 0.00 | 0.00 | 61 | 1013.1 |
| 20260508011017 | 22 | 302 | 1.6 | 9.7 | 0.00 | 0.00 | 0.00 | 61 | 1013.0 |
| 20260508010514 | 22 | 185 | 6.4 | 11.3 | 0.00 | 0.00 | 0.00 | 59 | 1013.0 |
| 20260508010011 | 22 | 191 | 4.8 | 11.3 | 0.00 | 0.00 | 0.00 | 60 | 1012.9 |
| 20260508005508 | 22 | 56 | 4.8 | 17.7 | 0.00 | 0.00 | 0.00 | 60 | 1013.0 |
| 20260508005004 | 22 | 63 | 1.6 | 14.5 | 0.00 | 0.00 | 0.00 | 60 | 1012.9 |
| 20260508004500 | 22 | 32 | 3.2 | 12.9 | 0.00 | 0.00 | 0.00 | 58 | 1012.9 |
| 20260508003957 | 22 | 321 | 3.2 | 11.3 | 0.00 | 0.00 | 0.00 | 59 | 1013.0 |
| 20260508003454 | 22 | 241 | 4.8 | 9.7 | 0.00 | 0.00 | 0.00 | 58 | 1012.9 |
| 20260508002951 | 23 | 347 | 3.2 | 11.3 | 0.00 | 0.00 | 0.00 | 58 | 1013.0 |
| 20260508002447 | 22 | 182 | 3.2 | 12.9 | 0.00 | 0.00 | 0.00 | 58 | 1012.7 |
| 20260508001943 | 23 | 277 | 4.8 | 9.7 | 0.00 | 0.00 | 0.00 | 55 | 1012.8 |
| 20260508001440 | 23 | 276 | 3.2 | 9.7 | 0.00 | 0.00 | 0.00 | 55 | 1013.1 |
| 20260508000937 | 24 | 80 | 6.4 | 12.9 | 0.00 | 0.00 | 0.00 | 55 | 1012.9 |
| 20260508000434 | 24 | 160 | 1.6 | 4.8 | 0.00 | 0.00 | 0.00 | 54 | 1012.8 |
| 20260507235930 | 24 | 324 | 1.6 | 9.7 | 0.00 | 0.00 | 0.00 | 54 | 1012.9 |
| 20260507235427 | 24 | 68 | 3.2 | 9.7 | 0.00 | 0.00 | 0.00 | 54 | 1012.9 |
| 20260507234924 | 24 | 197 | 4.8 | 16.1 | 0.00 | 0.00 | 0.00 | 54 | 1012.8 |
| 20260507234420 | 25 | 261 | 3.2 | 4.8 | 0.00 | 0.00 | 0.00 | 53 | 1012.9 |
| 20260507233917 | 24 | 190 | 6.4 | 17.7 | 0.00 | 0.00 | 0.00 | 53 | 1012.9 |
| 20260507233414 | 24 | 101 | 3.2 | 12.9 | 0.00 | 0.00 | 0.00 | 54 | 1012.8 |
| 20260507232913 | 25 | 55 | 6.4 | 16.1 | 0.00 | 0.00 | 0.00 | 53 | 1013.0 |
| 20260507232409 | 25 | 226 | 8.0 | 14.5 | 0.00 | 0.00 | 0.00 | 52 | 1013.0 |
| 20260507231906 | 24 | 191 | 3.2 | 12.9 | 0.00 | 0.00 | 0.00 | 52 | 1013.1 |
| 20260507231402 | 23 | 26 | 3.2 | 16.1 | 0.00 | 0.00 | 0.00 | 54 | 1013.1 |
| 20260507230859 | 25 | 205 | 6.4 | 16.1 | 0.00 | 0.00 | 0.00 | 51 | 1012.9 |
| 20260507230356 | 25 | 214 | 6.4 | 14.5 | 0.00 | 0.00 | 0.00 | 51 | 1012.9 |
| 20260507225856 | 25 | 234 | 3.2 | 11.3 | 0.00 | 0.00 | 0.00 | 52 | 1012.9 |
| 20260507225353 | 25 | 66 | 4.8 | 11.3 | 0.00 | 0.00 | 0.00 | 51 | 1013.1 |
| 20260507224848 | 25 | 283 | 3.2 | 16.1 | 0.00 | 0.00 | 0.00 | 51 | 1012.9 |
| 20260507224345 | 24 | 269 | 1.6 | 14.5 | 0.00 | 0.00 | 0.00 | 53 | 1013.1 |
| 20260507223841 | 24 | 187 | 6.4 | 16.1 | 0.00 | 0.00 | 0.00 | 54 | 1013.2 |
| 20260507223337 | 25 | 211 | 3.2 | 12.9 | 0.00 | 0.00 | 0.00 | 51 | 1013.2 |
| 20260507222835 | 25 | 215 | 1.6 | 9.7 | 0.00 | 0.00 | 0.00 | 51 | 1013.1 |
| 20260507222331 | 25 | 58 | 4.8 | 17.7 | 0.00 | 0.00 | 0.00 | 51 | 1013.3 |
| 20260507221828 | 25 | 21 | 3.2 | 9.7 | 0.00 | 0.00 | 0.00 | 50 | 1013.0 |
| 20260507221325 | 25 | 326 | 9.7 | 12.9 | 0.00 | 0.00 | 0.00 | 50 | 1013.2 |
| 20260507220821 | 25 | 284 | 0.0 | 9.7 | 0.00 | 0.00 | 0.00 | 49 | 1013.4 |
| 20260507220319 | 23 | 152 | 4.8 | 12.9 | 0.00 | 0.00 | 0.00 | 51 | 1013.4 |
| 20260507215815 | 25 | 44 | 3.2 | 12.9 | 0.00 | 0.00 | 0.00 | 50 | 1013.4 |
| 20260507215313 | 25 | 354 | 3.2 | 11.3 | 0.00 | 0.00 | 0.00 | 50 | 1013.6 |
| 20260507214810 | 25 | 83 | 6.4 | 11.3 | 0.00 | 0.00 | 0.00 | 49 | 1013.5 |
| 20260507214307 | 25 | 15 | 4.8 | 9.7 | 0.00 | 0.00 | 0.00 | 51 | 1013.6 |
| 20260507213802 | 25 | 19 | 6.4 | 12.9 | 0.00 | 0.00 | 0.00 | 51 | 1013.7 |
| 20260507213259 | 25 | 219 | 16.1 | 16.1 | 0.00 | 0.00 | 0.00 | 51 | 1013.9 |
| 20260507212756 | 25 | 81 | 1.6 | 14.5 | 0.00 | 0.00 | 0.00 | 51 | 1013.7 |
| 20260507212252 | 25 | 124 | 8.0 | 11.3 | 0.00 | 0.00 | 0.00 | 51 | 1014.0 |
| 20260507211749 | 25 | 354 | 1.6 | 16.1 | 0.00 | 0.00 | 0.00 | 51 | 1014.0 |
| 20260507211245 | 25 | 154 | 3.2 | 11.3 | 0.00 | 0.00 | 0.00 | 51 | 1013.7 |
| 20260507210742 | 25 | 189 | 3.2 | 12.9 | 0.00 | 0.00 | 0.00 | 52 | 1014.0 |
| 20260507210239 | 24 | 211 | 9.7 | 12.9 | 0.00 | 0.00 | 0.00 | 52 | 1013.9 |
| 20260507205736 | 25 | 165 | 9.7 | 17.7 | 0.00 | 0.00 | 0.00 | 54 | 1014.0 |
| 20260507205232 | 24 | 229 | 11.3 | 14.5 | 0.00 | 0.00 | 0.00 | 54 | 1014.0 |
| 20260507204728 | 24 | 206 | 3.2 | 14.5 | 0.00 | 0.00 | 0.00 | 55 | 1014.2 |
| 20260507204227 | 24 | 74 | 9.7 | 17.7 | 0.00 | 0.00 | 0.00 | 54 | 1014.2 |
| 20260507203724 | 24 | 198 | 8.0 | 12.9 | 0.00 | 0.00 | 0.00 | 54 | 1014.0 |
| 20260507203221 | 24 | 198 | 12.9 | 17.7 | 0.00 | 0.00 | 0.00 | 55 | 1014.2 |
| 20260507202717 | 23 | 63 | 3.2 | 9.7 | 0.00 | 0.00 | 0.00 | 55 | 1014.1 |
| 20260507202214 | 23 | 205 | 9.7 | 17.7 | 0.00 | 0.00 | 0.00 | 57 | 1014.1 |
| 20260507201708 | 24 | 109 | 3.2 | 12.9 | 0.00 | 0.00 | 0.00 | 55 | 1014.3 |
| 20260507201206 | 23 | 343 | 4.8 | 16.1 | 0.00 | 0.00 | 0.00 | 56 | 1014.2 |
| 20260507200702 | 25 | 188 | 4.8 | 22.5 | 0.00 | 0.00 | 0.00 | 55 | 1014.6 |
| 20260507200158 | 23 | 194 | 6.4 | 12.9 | 0.00 | 0.00 | 0.00 | 55 | 1014.3 |
| 20260507195655 | 24 | 76 | 0.0 | 16.1 | 0.00 | 0.00 | 0.00 | 55 | 1014.5 |
| 20260507195152 | 25 | 45 | 6.4 | 11.3 | 0.00 | 0.00 | 0.00 | 52 | 1014.5 |
| 20260507194649 | 24 | 190 | 6.4 | 14.5 | 0.00 | 0.00 | 0.00 | 52 | 1014.4 |
| 20260507194144 | 24 | 223 | 12.9 | 14.5 | 0.00 | 0.00 | 0.00 | 51 | 1014.5 |
| 20260507193641 | 23 | 234 | 4.8 | 9.7 | 0.00 | 0.00 | 0.00 | 53 | 1014.6 |
| 20260507193139 | 23 | 74 | 6.4 | 11.3 | 0.00 | 0.00 | 0.00 | 54 | 1014.8 |
| 20260507192634 | 24 | 92 | 3.2 | 11.3 | 0.00 | 0.00 | 0.00 | 52 | 1014.7 |
| 20260507192131 | 23 | 38 | 3.2 | 11.3 | 0.00 | 0.00 | 0.00 | 53 | 1014.8 |
| 20260507191627 | 23 | 113 | 6.4 | 9.7 | 0.00 | 0.00 | 0.00 | 55 | 1014.8 |
| 20260507191124 | 23 | 53 | 1.6 | 9.7 | 0.00 | 0.00 | 0.00 | 54 | 1014.8 |
| 20260507190621 | 23 | 200 | 4.8 | 9.7 | 0.00 | 0.00 | 0.00 | 55 | 1015.0 |
| 20260507190120 | 22 | 164 | 1.6 | 11.3 | 0.00 | 0.00 | 0.00 | 54 | 1015.0 |
| 20260507185618 | 23 | 209 | 1.6 | 3.2 | 0.00 | 0.00 | 0.00 | 55 | 1015.1 |
| 20260507185114 | 23 | 202 | 11.3 | 14.5 | 0.00 | 0.00 | 0.00 | 54 | 1015.2 |
| 20260507184613 | 22 | 184 | 4.8 | 6.4 | 0.00 | 0.00 | 0.00 | 56 | 1015.2 |
| 20260507184110 | 22 | 281 | 9.7 | 14.5 | 0.00 | 0.00 | 0.00 | 57 | 1015.5 |
| 20260507183606 | 22 | 58 | 3.2 | 9.7 | 0.00 | 0.00 | 0.00 | 57 | 1015.2 |
| 20260507183103 | 22 | 20 | 3.2 | 6.4 | 0.00 | 0.00 | 0.00 | 56 | 1015.4 |
| 20260507182559 | 21 | 274 | 1.6 | 9.7 | 0.00 | 0.00 | 0.00 | 58 | 1015.3 |
| 20260507182055 | 22 | 80 | 3.2 | 6.4 | 0.00 | 0.00 | 0.00 | 56 | 1015.4 |
| 20260507181553 | 22 | 183 | 4.8 | 9.7 | 0.00 | 0.00 | 0.00 | 56 | 1015.5 |
| 20260507181049 | 21 | 307 | 1.6 | 9.7 | 0.00 | 0.00 | 0.00 | 57 | 1015.4 |
| 20260507180545 | 22 | 220 | 1.6 | 3.2 | 0.00 | 0.00 | 0.00 | 59 | 1015.5 |
| 20260507180042 | 21 | 70 | 0.0 | 6.4 | 0.00 | 0.00 | 0.00 | 60 | 1015.4 |
| 20260507175538 | 20 | 2 | 0.0 | 6.4 | 0.00 | 0.00 | 0.00 | 63 | 1015.5 |
| 20260507175037 | 21 | 338 | 6.4 | 11.3 | 0.00 | 0.00 | 0.00 | 63 | 1015.4 |
| 20260507174533 | 20 | 207 | 4.8 | 12.9 | 0.00 | 0.00 | 0.00 | 65 | 1015.7 |
| 20260507174031 | 20 | 313 | 0.0 | 3.2 | 0.00 | 0.00 | 0.00 | 63 | 1015.4 |
| 20260507173527 | 20 | 212 | 9.7 | 12.9 | 0.00 | 0.00 | 0.00 | 63 | 1015.5 |
| 20260507173025 | 20 | 218 | 3.2 | 9.7 | 0.00 | 0.00 | 0.00 | 63 | 1015.5 |
| 20260507172520 | 20 | 164 | 1.6 | 3.2 | 0.00 | 0.00 | 0.00 | 64 | 1015.5 |
| 20260507172017 | 20 | 301 | 8.0 | 11.3 | 0.00 | 0.00 | 0.00 | 65 | 1015.5 |
| 20260507171513 | 20 | 267 | 3.2 | 11.3 | 0.00 | 0.00 | 0.00 | 67 | 1015.5 |
| 20260507171011 | 19 | 72 | 6.4 | 9.7 | 0.00 | 0.00 | 0.00 | 67 | 1015.5 |
| 20260507170507 | 19 | 214 | 3.2 | 4.8 | 0.00 | 0.00 | 0.00 | 66 | 1015.6 |
| 20260507170004 | 20 | 2 | 1.6 | 11.3 | 0.00 | 0.00 | 0.00 | 67 | 1015.6 |
| 20260507165500 | 19 | 168 | 1.6 | 6.4 | 0.00 | 0.00 | 0.00 | 67 | 1015.6 |
| 20260507164956 | 18 | 30 | 3.2 | 6.4 | 0.00 | 0.00 | 0.00 | 71 | 1015.6 |
| 20260507164453 | 18 | 68 | 4.8 | 9.7 | 0.00 | 0.00 | 0.00 | 70 | 1015.6 |
| 20260507163949 | 18 | 42 | 3.2 | 4.8 | 0.00 | 0.00 | 0.00 | 70 | 1015.7 |
| 20260507163447 | 18 | 12 | 0.0 | 3.2 | 0.00 | 0.00 | 0.00 | 69 | 1015.5 |
| 20260507162944 | 17 | 351 | 1.6 | 4.8 | 0.00 | 0.00 | 0.00 | 71 | 1015.9 |
| 20260507162439 | 17 | 224 | 0.0 | 3.2 | 0.00 | 0.00 | 0.00 | 72 | 1015.6 |
| 20260507161937 | 18 | 333 | 1.6 | 9.7 | 0.00 | 0.00 | 0.00 | 71 | 1015.8 |
| 20260507161432 | 17 | 227 | 1.6 | 6.4 | 0.00 | 0.00 | 0.00 | 71 | 1015.6 |
| 20260507160929 | 17 | 206 | 3.2 | 3.2 | 0.00 | 0.00 | 0.00 | 73 | 1015.7 |
| 20260507160425 | 17 | 356 | 1.6 | 4.8 | 0.00 | 0.00 | 0.00 | 74 | 1015.7 |
| 20260507155921 | 17 | 27 | 0.0 | 3.2 | 0.00 | 0.00 | 0.00 | 74 | 1015.7 |
| 20260507155417 | 17 | 213 | 4.8 | 4.8 | 0.00 | 0.00 | 0.00 | 73 | 1015.6 |
| 20260507154915 | 16 | 270 | 1.6 | 4.8 | 0.00 | 0.00 | 0.00 | 78 | 1015.7 |
| 20260507154411 | 16 | 227 | 6.4 | 6.4 | 0.00 | 0.00 | 0.00 | 77 | 1015.7 |
| 20260507153909 | 17 | 305 | 3.2 | 3.2 | 0.00 | 0.00 | 0.00 | 75 | 1015.8 |
| 20260507153405 | 16 | 321 | 0.0 | 4.8 | 0.00 | 0.00 | 0.00 | 78 | 1015.8 |
| 20260507152902 | 16 | 218 | 4.8 | 4.8 | 0.00 | 0.00 | 0.00 | 78 | 1016.1 |
| 20260507152358 | 15 | 56 | 0.0 | 4.8 | 0.00 | 0.00 | 0.00 | 79 | 1015.9 |
| 20260507151854 | 15 | 214 | 1.6 | 4.8 | 0.00 | 0.00 | 0.00 | 79 | 1015.6 |
| 20260507151351 | 15 | 59 | 3.2 | 6.4 | 0.00 | 0.00 | 0.00 | 81 | 1015.8 |
| 20260507150847 | 15 | 6 | 0.0 | 4.8 | 0.00 | 0.00 | 0.00 | 79 | 1015.7 |
| 20260507150344 | 16 | 357 | 0.0 | 3.2 | 0.00 | 0.00 | 0.00 | 77 | 1015.7 |
| 20260507145840 | 16 | 27 | 0.0 | 1.6 | 0.00 | 0.00 | 0.00 | 77 | 1015.7 |
| 20260507145337 | 15 | 296 | 1.6 | 3.2 | 0.00 | 0.00 | 0.00 | 79 | 1015.7 |
| 20260507144834 | 15 | 146 | 0.0 | 3.2 | 0.00 | 0.00 | 0.00 | 80 | 1015.8 |
| 20260507144331 | 15 | 15 | 0.0 | 1.6 | 0.00 | 0.00 | 0.00 | 80 | 1015.8 |
| 20260507143827 | 15 | 283 | 0.0 | 3.2 | 0.00 | 0.00 | 0.00 | 79 | 1015.6 |
| 20260507143325 | 15 | 196 | 1.6 | 3.2 | 0.00 | 0.00 | 0.00 | 79 | 1015.7 |
| 20260507142821 | 15 | 9 | 1.6 | 1.6 | 0.00 | 0.00 | 0.00 | 79 | 1015.6 |
| 20260507142317 | 16 | 0 | 1.6 | 3.2 | 0.00 | 0.00 | 0.00 | 77 | 1015.5 |
| 20260507141814 | 15 | 38 | 0.0 | 1.6 | 0.00 | 0.00 | 0.00 | 79 | 1015.3 |
| 20260507141311 | 16 | 31 | 1.6 | 1.6 | 0.00 | 0.00 | 0.00 | 76 | 1015.3 |
| 20260507140807 | 15 | 3 | 0.0 | 0.0 | 0.00 | 0.00 | 0.00 | 77 | 1015.5 |
| 20260507140304 | 15 | 2 | 0.0 | 0.0 | 0.00 | 0.00 | 0.00 | 79 | 1015.5 |
| 20260507135802 | 16 | 25 | 1.6 | 1.6 | 0.00 | 0.00 | 0.00 | 75 | 1015.2 |
| 20260507135259 | 15 | 10 | 0.0 | 1.6 | 0.00 | 0.00 | 0.00 | 77 | 1015.5 |
| 20260507134755 | 13 | 3 | 0.0 | 0.0 | 0.00 | 0.00 | 0.00 | 81 | 1015.4 |
| 20260507134252 | 13 | 7 | 0.0 | 0.0 | 0.00 | 0.00 | 0.00 | 83 | 1015.1 |
| 20260507133747 | 13 | 10 | 0.0 | 1.6 | 0.00 | 0.00 | 0.00 | 84 | 1015.1 |
| 20260507133244 | 12 | 2 | 0.0 | 3.2 | 0.00 | 0.00 | 0.00 | 86 | 1015.0 |
| 20260507132742 | 12 | 15 | 1.6 | 1.6 | 0.00 | 0.00 | 0.00 | 88 | 1015.0 |
| 20260507132239 | 12 | 334 | 0.0 | 1.6 | 0.00 | 0.00 | 0.00 | 88 | 1014.8 |
| 20260507131735 | 12 | 274 | 1.6 | 1.6 | 0.00 | 0.00 | 0.00 | 87 | 1014.8 |
| 20260507131233 | 12 | 337 | 0.0 | 1.6 | 0.00 | 0.00 | 0.00 | 87 | 1014.9 |
| 20260507130729 | 12 | 339 | 0.0 | 0.0 | 0.00 | 0.00 | 0.00 | 87 | 1014.8 |
| 20260507130227 | 12 | 346 | 0.0 | 0.0 | 0.00 | 0.00 | 0.00 | 86 | 1014.8 |
| 20260507125725 | 12 | 354 | 0.0 | 0.0 | 0.00 | 0.00 | 0.00 | 86 | 1014.8 |
| 20260507125223 | 12 | 312 | 0.0 | 0.0 | 0.00 | 0.00 | 0.00 | 87 | 1014.8 |
| 20260507124719 | 12 | 352 | 0.0 | 1.6 | 0.00 | 0.00 | 0.00 | 89 | 1014.6 |
| 20260507124216 | 11 | 1 | 1.6 | 1.6 | 0.00 | 0.00 | 0.00 | 89 | 1014.8 |
| 20260507123715 | 11 | 359 | 0.0 | 0.0 | 0.00 | 0.00 | 0.00 | 89 | 1014.7 |
| 20260507123212 | 12 | 12 | 0.0 | 1.6 | 0.00 | 0.00 | 0.00 | 88 | 1014.8 |
| 20260507122707 | 12 | 335 | 0.0 | 0.0 | 0.00 | 0.00 | 0.00 | 88 | 1014.8 |
| 20260507122203 | 11 | 0 | 0.0 | 1.6 | 0.00 | 0.00 | 0.00 | 89 | 1014.6 |
| 20260507121659 | 12 | 1 | 0.0 | 0.0 | 0.00 | 0.00 | 0.00 | 88 | 1014.7 |
| 20260507121155 | 12 | 349 | 0.0 | 0.0 | 0.00 | 0.00 | 0.00 | 88 | 1014.9 |
| 20260507120651 | 12 | 352 | 0.0 | 0.0 | 0.00 | 0.00 | 0.00 | 88 | 1014.8 |
| 20260507120148 | 12 | 15 | 0.0 | 1.6 | 0.00 | 0.00 | 0.00 | 87 | 1015.0 |
| 20260507115644 | 12 | 350 | 0.0 | 0.0 | 0.00 | 0.00 | 0.00 | 86 | 1014.9 |
| 20260507115140 | 12 | 344 | 1.6 | 1.6 | 0.00 | 0.00 | 0.00 | 84 | 1014.9 |
| 20260507114636 | 13 | 308 | 0.0 | 3.2 | 0.00 | 0.00 | 0.00 | 84 | 1015.0 |
| 20260507114133 | 12 | 272 | 1.6 | 3.2 | 0.00 | 0.00 | 0.00 | 86 | 1014.9 |
| 20260507113631 | 12 | 346 | 0.0 | 1.6 | 0.00 | 0.00 | 0.00 | 85 | 1014.8 |
| 20260507113127 | 13 | 274 | 0.0 | 3.2 | 0.00 | 0.00 | 0.00 | 84 | 1014.6 |
| 20260507112625 | 13 | 10 | 0.0 | 4.8 | 0.00 | 0.00 | 0.00 | 84 | 1015.0 |
| 20260507112122 | 13 | 45 | 3.2 | 4.8 | 0.00 | 0.00 | 0.00 | 84 | 1015.0 |
| 20260507111619 | 13 | 213 | 3.2 | 3.2 | 0.00 | 0.00 | 0.00 | 85 | 1015.0 |
| 20260507111116 | 12 | 355 | 1.6 | 1.6 | 0.00 | 0.00 | 0.00 | 86 | 1015.0 |
| 20260507110612 | 13 | 18 | 0.0 | 1.6 | 0.00 | 0.00 | 0.00 | 85 | 1014.9 |
| 20260507110109 | 12 | 23 | 1.6 | 3.2 | 0.00 | 0.00 | 0.00 | 86 | 1015.0 |
| 20260507105606 | 12 | 68 | 1.6 | 4.8 | 0.00 | 0.00 | 0.00 | 86 | 1014.9 |
| 20260507105101 | 12 | 356 | 0.0 | 1.6 | 0.00 | 0.00 | 0.00 | 85 | 1015.1 |
| 20260507104559 | 12 | 15 | 1.6 | 3.2 | 0.00 | 0.00 | 0.00 | 86 | 1015.0 |
| 20260507104056 | 12 | 53 | 1.6 | 3.2 | 0.00 | 0.00 | 0.00 | 85 | 1015.0 |
| 20260507103552 | 12 | 13 | 0.0 | 0.0 | 0.00 | 0.00 | 0.00 | 86 | 1015.2 |
| 20260507103049 | 12 | 7 | 0.0 | 1.6 | 0.00 | 0.00 | 0.00 | 86 | 1015.3 |
| 20260507102545 | 12 | 1 | 0.0 | 0.0 | 0.00 | 0.00 | 0.00 | 86 | 1015.2 |
| 20260507102041 | 12 | 18 | 0.0 | 0.0 | 0.00 | 0.00 | 0.00 | 86 | 1015.3 |
| 20260507101537 | 12 | 343 | 0.0 | 1.6 | 0.00 | 0.00 | 0.00 | 86 | 1015.0 |
| 20260507101033 | 12 | 14 | 0.0 | 3.2 | 0.00 | 0.00 | 0.00 | 87 | 1015.2 |
| 20260507100531 | 12 | 12 | 0.0 | 1.6 | 0.00 | 0.00 | 0.00 | 86 | 1015.3 |
| 20260507100029 | 11 | 19 | 1.6 | 3.2 | 0.00 | 0.00 | 0.00 | 87 | 1015.3 |
| 20260507095526 | 11 | 331 | 0.0 | 1.6 | 0.00 | 0.00 | 0.00 | 86 | 1015.3 |
| 20260507095023 | 11 | 331 | 1.6 | 1.6 | 0.00 | 0.00 | 0.00 | 86 | 1015.3 |
| 20260507094519 | 11 | 23 | 1.6 | 1.6 | 0.00 | 0.00 | 0.00 | 87 | 1015.3 |
| 20260507094016 | 11 | 358 | 0.0 | 1.6 | 0.00 | 0.00 | 0.00 | 88 | 1015.4 |
| 20260507093513 | 11 | 8 | 0.0 | 1.6 | 0.00 | 0.00 | 0.00 | 88 | 1015.5 |
| 20260507093012 | 11 | 351 | 0.0 | 0.0 | 0.00 | 0.00 | 0.00 | 88 | 1015.7 |
| 20260507092508 | 11 | 342 | 0.0 | 0.0 | 0.00 | 0.00 | 0.00 | 89 | 1015.7 |
| 20260507092005 | 10 | 345 | 0.0 | 0.0 | 0.00 | 0.00 | 0.00 | 88 | 1015.8 |
| 20260507091502 | 11 | 1 | 0.0 | 0.0 | 0.00 | 0.00 | 0.00 | 87 | 1015.9 |
| 20260507090957 | 11 | 354 | 0.0 | 0.0 | 0.00 | 0.00 | 0.00 | 87 | 1015.8 |
| 20260507090453 | 11 | 359 | 0.0 | 0.0 | 0.00 | 0.00 | 0.00 | 87 | 1015.8 |
| 20260507085950 | 11 | 357 | 0.0 | 0.0 | 0.00 | 0.00 | 0.00 | 87 | 1015.9 |
| 20260507085447 | 11 | 357 | 0.0 | 0.0 | 0.00 | 0.00 | 0.00 | 87 | 1016.0 |
| 20260507084944 | 11 | 354 | 0.0 | 0.0 | 0.00 | 0.00 | 0.00 | 87 | 1015.9 |
| 20260507084441 | 12 | 352 | 0.0 | 0.0 | 0.00 | 0.00 | 0.00 | 88 | 1016.2 |
| 20260507083938 | 11 | 346 | 0.0 | 0.0 | 0.00 | 0.00 | 0.00 | 88 | 1016.1 |
| 20260507083434 | 11 | 339 | 0.0 | 0.0 | 0.00 | 0.00 | 0.00 | 89 | 1016.0 |
| 20260507082931 | 11 | 345 | 0.0 | 0.0 | 0.00 | 0.00 | 0.00 | 89 | 1016.2 |
| 20260507082427 | 11 | 351 | 0.0 | 0.0 | 0.00 | 0.00 | 0.00 | 89 | 1016.1 |
| 20260507081924 | 12 | 346 | 0.0 | 0.0 | 0.00 | 0.00 | 0.00 | 87 | 1016.3 |
| 20260507081420 | 12 | 344 | 0.0 | 1.6 | 0.00 | 0.00 | 0.00 | 88 | 1016.2 |
| 20260507080917 | 12 | 345 | 0.0 | 0.0 | 0.00 | 0.00 | 0.00 | 88 | 1016.1 |
| 20260507080413 | 12 | 357 | 0.0 | 0.0 | 0.00 | 0.00 | 0.00 | 88 | 1016.2 |
| 20260507075908 | 12 | 351 | 0.0 | 1.6 | 0.00 | 0.00 | 0.00 | 88 | 1016.5 |
| 20260507075404 | 12 | 6 | 0.0 | 1.6 | 0.00 | 0.00 | 0.00 | 88 | 1016.2 |
| 20260507074901 | 12 | 356 | 0.0 | 0.0 | 0.00 | 0.00 | 0.00 | 88 | 1016.2 |
| 20260507074358 | 12 | 309 | 0.0 | 1.6 | 0.00 | 0.00 | 0.00 | 87 | 1016.2 |
| 20260507073855 | 12 | 356 | 0.0 | 0.0 | 0.00 | 0.00 | 0.00 | 86 | 1016.3 |
| 20260507073352 | 12 | 358 | 0.0 | 0.0 | 0.00 | 0.00 | 0.00 | 84 | 1016.3 |
| 20260507072849 | 12 | 340 | 0.0 | 0.0 | 0.00 | 0.00 | 0.00 | 84 | 1016.5 |
| 20260507072346 | 12 | 310 | 0.0 | 1.6 | 0.00 | 0.00 | 0.00 | 86 | 1016.3 |
| 20260507071844 | 12 | 353 | 0.0 | 1.6 | 0.00 | 0.00 | 0.00 | 86 | 1016.2 |
| 20260507071341 | 12 | 17 | 1.6 | 1.6 | 0.00 | 0.00 | 0.00 | 86 | 1016.3 |
| 20260507070837 | 12 | 356 | 0.0 | 1.6 | 0.00 | 0.00 | 0.00 | 86 | 1016.5 |
| 20260507070335 | 12 | 19 | 0.0 | 1.6 | 0.00 | 0.00 | 0.00 | 86 | 1016.6 |
| 20260507065831 | 12 | 357 | 0.0 | 0.0 | 0.00 | 0.00 | 0.00 | 86 | 1016.4 |
| 20260507065328 | 12 | 344 | 0.0 | 0.0 | 0.00 | 0.00 | 0.00 | 86 | 1016.3 |
| 20260507064825 | 12 | 342 | 0.0 | 0.0 | 0.00 | 0.00 | 0.00 | 86 | 1016.5 |
| 20260507064324 | 12 | 9 | 1.6 | 1.6 | 0.00 | 0.00 | 0.00 | 85 | 1016.5 |
| 20260507063821 | 12 | 343 | 0.0 | 0.0 | 0.00 | 0.00 | 0.00 | 85 | 1016.6 |
| 20260507063318 | 12 | 337 | 0.0 | 0.0 | 0.00 | 0.00 | 0.00 | 85 | 1016.6 |
| 20260507062815 | 12 | 1 | 0.0 | 1.6 | 0.00 | 0.00 | 0.00 | 83 | 1016.8 |
| 20260507062312 | 13 | 334 | 0.0 | 1.6 | 0.00 | 0.00 | 0.00 | 83 | 1016.7 |
| 20260507061810 | 12 | 330 | 0.0 | 1.6 | 0.00 | 0.00 | 0.00 | 83 | 1016.6 |
| 20260507061307 | 13 | 357 | 0.0 | 0.0 | 0.00 | 0.00 | 0.00 | 82 | 1016.6 |
| 20260507060805 | 13 | 327 | 0.0 | 0.0 | 0.00 | 0.00 | 0.00 | 82 | 1016.6 |
| 20260507060302 | 13 | 352 | 0.0 | 0.0 | 0.00 | 0.00 | 0.00 | 82 | 1016.6 |
| 20260507055758 | 13 | 349 | 0.0 | 0.0 | 0.00 | 0.00 | 0.00 | 81 | 1016.6 |
| 20260507055254 | 13 | 351 | 0.0 | 0.0 | 0.00 | 0.00 | 0.00 | 80 | 1016.6 |
| 20260507054750 | 13 | 356 | 0.0 | 0.0 | 0.00 | 0.00 | 0.00 | 79 | 1016.6 |
| 20260507054247 | 14 | 346 | 0.0 | 0.0 | 0.00 | 0.00 | 0.00 | 78 | 1016.6 |
| 20260507053744 | 14 | 334 | 0.0 | 0.0 | 0.00 | 0.00 | 0.00 | 78 | 1016.7 |
| 20260507053242 | 14 | 334 | 0.0 | 0.0 | 0.00 | 0.00 | 0.00 | 78 | 1016.7 |
| 20260507052741 | 14 | 342 | 0.0 | 0.0 | 0.00 | 0.00 | 0.00 | 77 | 1016.5 |
| 20260507052236 | 15 | 240 | 3.2 | 3.2 | 0.00 | 0.00 | 0.00 | 76 | 1016.4 |
| 20260507051735 | 15 | 351 | 0.0 | 0.0 | 0.00 | 0.00 | 0.00 | 75 | 1016.5 |
| 20260507051231 | 15 | 288 | 3.2 | 3.2 | 0.00 | 0.00 | 0.00 | 75 | 1016.6 |
| 20260507050728 | 15 | 213 | 1.6 | 3.2 | 0.00 | 0.00 | 0.00 | 75 | 1016.4 |
| 20260507050225 | 15 | 237 | 3.2 | 3.2 | 0.00 | 0.00 | 0.00 | 75 | 1016.4 |
| 20260507045722 | 15 | 245 | 3.2 | 3.2 | 0.00 | 0.00 | 0.00 | 74 | 1016.2 |
| 20260507045218 | 15 | 186 | 3.2 | 3.2 | 0.00 | 0.00 | 0.00 | 74 | 1016.2 |
| 20260507044715 | 15 | 239 | 3.2 | 6.4 | 0.00 | 0.00 | 0.00 | 73 | 1016.4 |
| 20260507044212 | 15 | 224 | 4.8 | 6.4 | 0.00 | 0.00 | 0.00 | 73 | 1016.4 |
| 20260507043708 | 15 | 268 | 1.6 | 4.8 | 0.00 | 0.00 | 0.00 | 73 | 1016.3 |
| 20260507043205 | 15 | 235 | 4.8 | 4.8 | 0.00 | 0.00 | 0.00 | 73 | 1016.5 |
| 20260507042701 | 15 | 224 | 3.2 | 6.4 | 0.00 | 0.00 | 0.00 | 73 | 1016.4 |
| 20260507042156 | 15 | 255 | 3.2 | 6.4 | 0.00 | 0.00 | 0.00 | 73 | 1016.3 |
| 20260507041654 | 16 | 248 | 1.6 | 4.8 | 0.00 | 0.00 | 0.00 | 73 | 1016.4 |
| 20260507041150 | 16 | 5 | 1.6 | 4.8 | 0.00 | 0.00 | 0.00 | 72 | 1016.3 |
| 20260507040647 | 16 | 324 | 1.6 | 4.8 | 0.00 | 0.00 | 0.00 | 72 | 1016.3 |
| 20260507040143 | 16 | 196 | 3.2 | 4.8 | 0.00 | 0.00 | 0.00 | 72 | 1016.4 |
| 20260507035639 | 16 | 285 | 3.2 | 4.8 | 0.00 | 0.00 | 0.00 | 71 | 1016.1 |
| 20260507035135 | 16 | 2 | 1.6 | 6.4 | 0.00 | 0.00 | 0.00 | 70 | 1016.1 |
| 20260507034633 | 16 | 226 | 3.2 | 4.8 | 0.00 | 0.00 | 0.00 | 69 | 1016.0 |
| 20260507034130 | 16 | 184 | 4.8 | 6.4 | 0.00 | 0.00 | 0.00 | 69 | 1016.0 |
| 20260507033628 | 16 | 189 | 4.8 | 4.8 | 0.00 | 0.00 | 0.00 | 68 | 1015.8 |
| 20260507033125 | 16 | 233 | 1.6 | 4.8 | 0.00 | 0.00 | 0.00 | 68 | 1015.8 |
| 20260507032623 | 16 | 340 | 0.0 | 3.2 | 0.00 | 0.00 | 0.00 | 68 | 1015.9 |
| 20260507032118 | 17 | 230 | 4.8 | 11.3 | 0.00 | 0.00 | 0.00 | 67 | 1015.9 |
| 20260507031615 | 17 | 204 | 6.4 | 9.7 | 0.00 | 0.00 | 0.00 | 68 | 1015.9 |
| 20260507031112 | 17 | 220 | 3.2 | 4.8 | 0.00 | 0.00 | 0.00 | 71 | 1015.6 |
| 20260507030609 | 17 | 321 | 1.6 | 3.2 | 0.00 | 0.00 | 0.00 | 69 | 1015.8 |
| 20260507030107 | 17 | 345 | 0.0 | 1.6 | 0.00 | 0.00 | 0.00 | 68 | 1015.6 |
| 20260507025603 | 17 | 181 | 1.6 | 4.8 | 0.00 | 0.00 | 0.00 | 68 | 1015.7 |
| 20260507025100 | 17 | 168 | 0.0 | 4.8 | 0.00 | 0.00 | 0.00 | 67 | 1015.7 |
| 20260507024559 | 17 | 316 | 1.6 | 4.8 | 0.00 | 0.00 | 0.00 | 67 | 1015.6 |
| 20260507024055 | 17 | 10 | 0.0 | 4.8 | 0.00 | 0.00 | 0.00 | 66 | 1015.6 |
| 20260507023551 | 17 | 213 | 4.8 | 4.8 | 0.00 | 0.00 | 0.00 | 66 | 1015.4 |
| 20260507023048 | 17 | 287 | 1.6 | 6.4 | 0.00 | 0.00 | 0.00 | 66 | 1015.4 |
| 20260507022545 | 18 | 191 | 4.8 | 4.8 | 0.00 | 0.00 | 0.00 | 65 | 1015.0 |
| 20260507022040 | 18 | 3 | 0.0 | 4.8 | 0.00 | 0.00 | 0.00 | 65 | 1015.4 |
| 20260507021537 | 18 | 342 | 1.6 | 4.8 | 0.00 | 0.00 | 0.00 | 64 | 1015.3 |
| 20260507021033 | 18 | 130 | 3.2 | 6.4 | 0.00 | 0.00 | 0.00 | 64 | 1015.2 |
| 20260507020531 | 18 | 14 | 3.2 | 9.7 | 0.00 | 0.00 | 0.00 | 63 | 1015.1 |
| 20260507020027 | 18 | 19 | 3.2 | 6.4 | 0.00 | 0.00 | 0.00 | 62 | 1015.1 |
| 20260507015526 | 19 | 52 | 1.6 | 4.8 | 0.00 | 0.00 | 0.00 | 61 | 1015.2 |
| 20260507015023 | 19 | 352 | 0.0 | 9.7 | 0.00 | 0.00 | 0.00 | 61 | 1015.1 |
| 20260507014519 | 20 | 161 | 4.8 | 9.7 | 0.00 | 0.00 | 0.00 | 61 | 1015.1 |
| 20260507014015 | 20 | 22 | 1.6 | 4.8 | 0.00 | 0.00 | 0.00 | 60 | 1015.0 |